FW3849 Weather Reports


time (UTC)temp
C
wind
direction
speed
KPH
gust
KPH
rain 1hr
cm
rain 24hr
cm
rain mn
cm
humidity
%
barometer
mb
20260903233054 38 204 9.7 17.7 0.00 0.00 0.00 15 1005.8
20260903232553 38 145 4.8 22.5 0.00 0.00 0.00 16 1005.8
20260903232054 38 199 12.9 22.5 0.00 0.00 0.00 15 1005.8
20260903231604 38 188 9.7 22.5 0.00 0.00 0.00 15 1005.9
20260903231054 38 160 14.5 22.5 0.00 0.00 0.00 14 1005.9
20260903230557 38 181 11.3 22.5 0.00 0.00 0.00 14 1005.9
20260903230101 38 205 8.0 14.5 0.00 0.00 0.00 14 1005.8
20260903225553 38 145 6.4 17.7 0.00 0.00 0.00 13 1005.8
20260903225055 38 140 6.4 17.7 0.00 0.00 0.00 13 1005.7
20260903224552 38 179 4.8 19.3 0.00 0.00 0.00 13 1005.7
20260903224052 39 185 4.8 12.9 0.00 0.00 0.00 12 1005.7
20260903223105 39 122 3.2 17.7 0.00 0.00 0.00 11 1005.7
20260903222552 39 72 6.4 20.9 0.00 0.00 0.00 12 1005.8
20260903222052 39 158 8.0 20.9 0.00 0.00 0.00 12 1005.8
20260903221551 39 154 4.8 14.5 0.00 0.00 0.00 12 1005.8
20260903221053 39 228 6.4 12.9 0.00 0.00 0.00 14 1005.8
20260903220550 39 51 3.2 11.3 0.00 0.00 0.00 15 1005.8
20260903215550 38 193 8.0 19.3 0.00 0.00 0.00 15 1006.1
20260903215049 38 192 9.7 19.3 0.00 0.00 0.00 15 1006.1
20260903214552 39 196 9.7 16.1 0.00 0.00 0.00 15 1006.1
20260903214051 39 171 4.8 8.0 0.00 0.00 0.00 15 1006.2
20260903213047 38 244 3.2 16.1 0.00 0.00 0.00 16 1006.2
20260903212646 38 199 8.0 16.1 0.00 0.00 0.00 16 1006.4
20260903212046 38 160 4.8 14.5 0.00 0.00 0.00 16 1006.5
20260903211546 38 134 6.4 14.5 0.00 0.00 0.00 16 1006.5
20260903211048 38 236 9.7 14.5 0.00 0.00 0.00 16 1006.6
20260903210548 38 138 3.2 12.9 0.00 0.00 0.00 17 1006.6
20260903210044 38 214 3.2 12.9 0.00 0.00 0.00 17 1006.8
20260903205543 38 208 6.4 12.9 0.00 0.00 0.00 16 1006.8
20260903205042 38 161 4.8 12.9 0.00 0.00 0.00 16 1006.9
20260903204542 38 343 0.0 8.0 0.00 0.00 0.00 17 1007.0
20260903204041 38 277 3.2 9.7 0.00 0.00 0.00 17 1006.9
20260903203040 38 113 8.0 17.7 0.00 0.00 0.00 18 1007.1
20260903202540 38 210 9.7 17.7 0.00 0.00 0.00 18 1007.2
20260903202044 38 91 8.0 16.1 0.00 0.00 0.00 18 1007.2
20260903201538 38 107 8.0 16.1 0.00 0.00 0.00 19 1007.1
20260903201042 37 188 8.0 27.4 0.00 0.00 0.00 18 1007.2
20260903200536 37 191 11.3 27.4 0.00 0.00 0.00 19 1007.2
20260903200044 37 200 9.7 16.1 0.00 0.00 0.00 19 1007.4
20260903195535 37 198 6.4 14.5 0.00 0.00 0.00 20 1007.4
20260903195038 37 201 6.4 14.5 0.00 0.00 0.00 20 1007.5
20260903194544 37 153 6.4 14.5 0.00 0.00 0.00 21 1007.7
20260903194034 38 230 3.2 17.7 0.00 0.00 0.00 20 1007.7
20260903193034 37 122 4.8 16.1 0.00 0.00 0.00 20 1008.0
20260903192534 37 248 6.4 12.9 0.00 0.00 0.00 21 1008.0
20260903192033 37 78 1.6 9.7 0.00 0.00 0.00 21 1008.1
20260903191535 37 185 3.2 12.9 0.00 0.00 0.00 21 1008.1
20260903191032 37 127 4.8 12.9 0.00 0.00 0.00 21 1008.3
20260903190532 37 99 4.8 14.5 0.00 0.00 0.00 22 1008.4
20260903190029 37 206 3.2 14.5 0.00 0.00 0.00 22 1008.5
20260903185527 36 254 1.6 17.7 0.00 0.00 0.00 24 1008.5
20260903185026 36 218 3.2 14.5 0.00 0.00 0.00 24 1008.6
20260903184524 36 226 8.0 17.7 0.00 0.00 0.00 23 1008.8
20260903184023 36 227 9.7 17.7 0.00 0.00 0.00 23 1008.8
20260903183622 36 212 11.3 25.7 0.00 0.00 0.00 25 1009.0
20260903183035 36 187 6.4 25.7 0.00 0.00 0.00 25 1009.1
20260903182524 36 310 3.2 22.5 0.00 0.00 0.00 26 1009.2
20260903182019 36 216 9.7 22.5 0.00 0.00 0.00 26 1009.3
20260903181525 36 200 6.4 19.3 0.00 0.00 0.00 27 1009.4
20260903181016 35 212 12.9 19.3 0.00 0.00 0.00 27 1009.7
20260903180515 35 198 8.0 16.1 0.00 0.00 0.00 28 1009.7
20260903180014 35 191 6.4 20.9 0.00 0.00 0.00 28 1009.8
20260903175513 35 207 11.3 20.9 0.00 0.00 0.00 28 1009.9
20260903175013 35 173 4.8 17.7 0.00 0.00 0.00 29 1010.0
20260903174516 35 189 9.7 17.7 0.00 0.00 0.00 29 1010.0
20260903174013 35 210 11.3 17.7 0.00 0.00 0.00 30 1010.0
20260903173006 34 203 6.4 16.1 0.00 0.00 0.00 31 1010.3
20260903172505 34 278 8.0 17.7 0.00 0.00 0.00 31 1010.4
20260903172004 34 193 12.9 17.7 0.00 0.00 0.00 32 1010.4
20260903171503 33 205 9.7 17.7 0.00 0.00 0.00 32 1010.3
20260903171100 33 199 8.0 17.7 0.00 0.00 0.00 32 1010.5
20260903170559 33 207 9.7 19.3 0.00 0.00 0.00 33 1010.7
20260903170058 33 192 6.4 19.3 0.00 0.00 0.00 33 1010.7
20260903165556 33 190 8.0 17.7 0.00 0.00 0.00 33 1010.6
20260903165054 33 172 8.0 19.3 0.00 0.00 0.00 35 1010.7
20260903164557 32 213 12.9 19.3 0.00 0.00 0.00 34 1010.7
20260903164052 32 147 9.7 14.5 0.00 0.00 0.00 36 1010.7
20260903163650 32 200 8.0 16.1 0.00 0.00 0.00 36 1010.7
20260903163051 32 198 8.0 16.1 0.00 0.00 0.00 36 1010.7
20260903162550 32 172 6.4 16.1 0.00 0.00 0.00 37 1010.7
20260903162050 32 201 8.0 17.7 0.00 0.00 0.00 37 1010.7
20260903161606 32 182 9.7 17.7 0.00 0.00 0.00 38 1010.7
20260903161050 31 220 9.7 17.7 0.00 0.00 0.00 38 1010.8
20260903160547 31 227 11.3 19.3 0.00 0.00 0.00 38 1010.8
20260903160047 31 186 8.0 19.3 0.00 0.00 0.00 38 1010.8
20260903155546 31 179 11.3 20.9 0.00 0.00 0.00 39 1010.7
20260903155046 31 225 14.5 20.9 0.00 0.00 0.00 39 1010.7
20260903154547 31 239 11.3 22.5 0.00 0.00 0.00 39 1010.8
20260903154046 31 213 8.0 22.5 0.00 0.00 0.00 40 1010.7
20260903153647 30 193 12.9 19.3 0.00 0.00 0.00 41 1010.7
20260903153045 30 216 11.3 19.3 0.00 0.00 0.00 41 1010.7
20260903152548 30 204 9.7 14.5 0.00 0.00 0.00 42 1010.8
20260903152045 30 187 8.0 17.7 0.00 0.00 0.00 43 1010.8
20260903151547 30 184 11.3 19.3 0.00 0.00 0.00 43 1010.8
20260903151045 30 204 9.7 16.1 0.00 0.00 0.00 43 1010.8
20260903150545 29 204 6.4 14.5 0.00 0.00 0.00 45 1010.9
20260903150044 29 134 8.0 17.7 0.00 0.00 0.00 45 1010.9
20260903145547 29 206 6.4 14.5 0.00 0.00 0.00 46 1011.0
20260903145044 29 166 6.4 14.5 0.00 0.00 0.00 46 1011.0
20260903144544 28 198 8.0 17.7 0.00 0.00 0.00 46 1011.0
20260903144045 28 127 9.7 17.7 0.00 0.00 0.00 46 1011.0
20260903143643 28 159 11.3 20.9 0.00 0.00 0.00 48 1011.0
20260903143045 28 195 14.5 20.9 0.00 0.00 0.00 48 1010.9
20260903142544 28 192 12.9 19.3 0.00 0.00 0.00 48 1011.0
20260903142043 28 194 9.7 17.7 0.00 0.00 0.00 48 1011.0
20260903141542 28 184 9.7 17.7 0.00 0.00 0.00 48 1011.1
20260903141046 28 185 9.7 17.7 0.00 0.00 0.00 48 1011.1
20260903140544 28 206 8.0 22.5 0.00 0.00 0.00 49 1011.1
20260903140042 27 208 14.5 22.5 0.00 0.00 0.00 49 1011.0
20260903135541 27 185 8.0 16.1 0.00 0.00 0.00 49 1011.0
20260903135041 27 169 8.0 16.1 0.00 0.00 0.00 49 1011.0
20260903134544 27 177 9.7 16.1 0.00 0.00 0.00 50 1011.0
20260903134040 27 189 9.7 16.1 0.00 0.00 0.00 50 1011.0
20260903133639 26 191 8.0 16.1 0.00 0.00 0.00 50 1011.0
20260903133048 26 159 8.0 16.1 0.00 0.00 0.00 50 1011.0
20260903132538 26 173 6.4 16.1 0.00 0.00 0.00 50 1010.9
20260903132037 26 175 6.4 14.5 0.00 0.00 0.00 50 1010.7
20260903131540 26 169 4.8 11.3 0.00 0.00 0.00 50 1010.7
20260903131035 26 181 6.4 11.3 0.00 0.00 0.00 50 1010.6
20260903130536 25 159 6.4 12.9 0.00 0.00 0.00 50 1010.5
20260903130035 25 177 6.4 11.3 0.00 0.00 0.00 50 1010.5
20260903125535 25 166 4.8 8.0 0.00 0.00 0.00 50 1010.5
20260903125035 25 141 3.2 8.0 0.00 0.00 0.00 49 1010.3
20260903124553 25 133 3.2 8.0 0.00 0.00 0.00 49 1010.4
20260903124033 25 127 3.2 8.0 0.00 0.00 0.00 48 1010.4
20260903123633 25 81 1.6 4.8 0.00 0.00 0.00 47 1010.3
20260903123036 25 81 1.6 4.8 0.00 0.00 0.00 47 1010.2
20260903122535 25 81 1.6 8.0 0.00 0.00 0.00 47 1010.0
20260903122035 25 81 3.2 8.0 0.00 0.00 0.00 46 1010.0
20260903121545 25 158 1.6 6.4 0.00 0.00 0.00 46 1010.0
20260903121035 25 160 1.6 6.4 0.00 0.00 0.00 45 1010.1
20260903120532 25 160 3.2 8.0 0.00 0.00 0.00 45 1010.0
20260903120032 25 160 1.6 4.8 0.00 0.00 0.00 45 1009.9
20260903115534 25 160 1.6 8.0 0.00 0.00 0.00 44 1010.0
20260903115032 25 160 3.2 8.0 0.00 0.00 0.00 44 1009.9
20260903114533 25 160 1.6 6.4 0.00 0.00 0.00 44 1009.9
20260903114030 25 160 1.6 6.4 0.00 0.00 0.00 44 1009.8
20260903113631 25 184 1.6 6.4 0.00 0.00 0.00 43 1009.8
20260903113031 25 184 1.6 6.4 0.00 0.00 0.00 43 1009.8
20260903112529 25 184 3.2 6.4 0.00 0.00 0.00 43 1009.7
20260903112027 25 184 3.2 6.4 0.00 0.00 0.00 42 1009.8
20260903111525 25 184 3.2 8.0 0.00 0.00 0.00 42 1009.9
20260903111024 26 184 3.2 8.0 0.00 0.00 0.00 42 1010.0
20260903110523 26 186 3.2 6.4 0.00 0.00 0.00 41 1009.8
20260903110021 26 186 1.6 4.8 0.00 0.00 0.00 41 1009.8
20260903105521 26 186 1.6 4.8 0.00 0.00 0.00 41 1009.7
20260903105018 26 186 0.0 4.8 0.00 0.00 0.00 40 1009.8
20260903104524 26 186 1.6 6.4 0.00 0.00 0.00 40 1010.0
20260903104017 26 186 1.6 6.4 0.00 0.00 0.00 40 1009.9
20260903103618 26 186 3.2 9.7 0.00 0.00 0.00 39 1009.9
20260903103017 26 186 4.8 9.7 0.00 0.00 0.00 39 1009.8
20260903102516 26 185 4.8 8.0 0.00 0.00 0.00 39 1009.8
20260903102019 27 167 3.2 8.0 0.00 0.00 0.00 39 1010.0
20260903101519 27 168 3.2 9.7 0.00 0.00 0.00 38 1009.9
20260903101014 27 168 3.2 9.7 0.00 0.00 0.00 38 1009.9
20260903100513 27 160 3.2 8.0 0.00 0.00 0.00 38 1009.9
20260903100021 27 160 4.8 8.0 0.00 0.00 0.00 38 1010.0
20260903095514 27 162 3.2 9.7 0.00 0.00 0.00 38 1009.9
20260903095015 27 160 4.8 9.7 0.00 0.00 0.00 37 1010.0
20260903094513 27 160 4.8 9.7 0.00 0.00 0.00 37 1010.0
20260903094011 27 160 3.2 8.0 0.00 0.00 0.00 37 1010.1
20260903093610 27 166 4.8 8.0 0.00 0.00 0.00 38 1010.2
20260903093012 27 165 3.2 8.0 0.00 0.00 0.00 37 1010.1
20260903092510 27 166 4.8 9.7 0.00 0.00 0.00 37 1010.0
20260903092009 27 166 4.8 9.7 0.00 0.00 0.00 37 1010.1
20260903091512 27 171 4.8 9.7 0.00 0.00 0.00 37 1009.9
20260903091009 27 173 4.8 11.3 0.00 0.00 0.00 36 1010.0
20260903090508 27 164 4.8 12.9 0.00 0.00 0.00 36 1010.0
20260903090008 27 171 4.8 8.0 0.00 0.00 0.00 36 1009.9
20260903085507 27 173 4.8 9.7 0.00 0.00 0.00 36 1010.0
20260903085009 28 173 3.2 9.7 0.00 0.00 0.00 35 1010.0
20260903084505 28 166 4.8 9.7 0.00 0.00 0.00 35 1010.0
20260903084005 28 166 4.8 9.7 0.00 0.00 0.00 35 1010.1
20260903083605 28 172 3.2 8.0 0.00 0.00 0.00 35 1010.1
20260903083006 28 172 3.2 8.0 0.00 0.00 0.00 35 1010.2
20260903082504 28 172 4.8 9.7 0.00 0.00 0.00 34 1010.2
20260903082004 28 173 3.2 8.0 0.00 0.00 0.00 34 1010.2
20260903081503 28 173 3.2 8.0 0.00 0.00 0.00 34 1010.2
20260903081001 28 174 3.2 8.0 0.00 0.00 0.00 33 1010.3
20260903080501 28 175 4.8 8.0 0.00 0.00 0.00 33 1010.2
20260903080001 28 175 3.2 8.0 0.00 0.00 0.00 33 1010.3
20260903075500 28 175 4.8 9.7 0.00 0.00 0.00 33 1010.3
20260903075000 28 186 4.8 12.9 0.00 0.00 0.00 32 1010.3
20260903074500 28 187 6.4 14.5 0.00 0.00 0.00 32 1010.4
20260903074100 28 193 8.0 14.5 0.00 0.00 0.00 32 1010.5
20260903074001 28 199 8.0 12.9 0.00 0.00 0.00 32 1010.5
20260903073700 28 188 3.2 9.7 0.00 0.00 0.00 32 1010.4
20260903072559 28 188 4.8 9.7 0.00 0.00 0.00 31 1010.4
20260903072100 28 191 3.2 12.9 0.00 0.00 0.00 31 1010.4
20260903071601 28 188 4.8 8.0 0.00 0.00 0.00 31 1010.4
20260903071101 28 188 4.8 8.0 0.00 0.00 0.00 31 1010.4
20260903070602 28 187 3.2 9.7 0.00 0.00 0.00 31 1010.4
20260903070106 28 187 4.8 9.7 0.00 0.00 0.00 31 1010.6
20260903065559 28 185 4.8 9.7 0.00 0.00 0.00 31 1010.4
20260903065058 28 185 3.2 9.7 0.00 0.00 0.00 30 1010.4
20260903064601 28 185 4.8 9.7 0.00 0.00 0.00 30 1010.4
20260903064058 28 184 4.8 9.7 0.00 0.00 0.00 30 1010.4
20260903063558 29 184 3.2 6.4 0.00 0.00 0.00 30 1010.5
20260903062557 29 185 3.2 8.0 0.00 0.00 0.00 30 1010.5
20260903062055 29 185 3.2 6.4 0.00 0.00 0.00 29 1010.6
20260903061557 29 186 3.2 8.0 0.00 0.00 0.00 29 1010.5
20260903061058 29 186 3.2 8.0 0.00 0.00 0.00 29 1010.5
20260903060554 29 186 3.2 8.0 0.00 0.00 0.00 29 1010.4
20260903060054 30 187 3.2 8.0 0.00 0.00 0.00 28 1010.5
20260903055552 30 187 4.8 9.7 0.00 0.00 0.00 28 1010.4
20260903055050 30 187 6.4 9.7 0.00 0.00 0.00 28 1010.4
20260903054550 30 188 4.8 9.7 0.00 0.00 0.00 27 1010.4
20260903054048 30 189 4.8 9.7 0.00 0.00 0.00 27 1010.3
20260903053552 31 193 4.8 9.7 0.00 0.00 0.00 26 1010.3
20260903052550 31 194 4.8 9.7 0.00 0.00 0.00 26 1010.3
20260903052050 31 194 6.4 12.9 0.00 0.00 0.00 26 1010.3
20260903051546 31 194 6.4 12.9 0.00 0.00 0.00 26 1010.3
20260903051048 31 195 4.8 9.7 0.00 0.00 0.00 26 1010.2
20260903050547 31 198 4.8 9.7 0.00 0.00 0.00 26 1010.2
20260903050043 31 200 4.8 9.7 0.00 0.00 0.00 26 1010.1
20260903045543 31 201 4.8 9.7 0.00 0.00 0.00 26 1010.2
20260903045047 31 201 4.8 9.7 0.00 0.00 0.00 26 1010.1
20260903044543 31 200 4.8 9.7 0.00 0.00 0.00 26 1010.1
20260903044047 31 200 6.4 9.7 0.00 0.00 0.00 26 1010.1
20260903043542 31 187 4.8 8.0 0.00 0.00 0.00 25 1010.2
20260903042543 31 187 4.8 12.9 0.00 0.00 0.00 25 1010.1
20260903042043 32 188 4.8 12.9 0.00 0.00 0.00 25 1010.1
20260903041543 32 206 8.0 12.9 0.00 0.00 0.00 25 1010.1
20260903041042 31 201 6.4 12.9 0.00 0.00 0.00 25 1010.1
20260903040545 31 204 8.0 9.7 0.00 0.00 0.00 26 1010.1
20260903040142 31 179 3.2 8.0 0.00 0.00 0.00 26 1010.2
20260903035541 31 179 3.2 6.4 0.00 0.00 0.00 26 1010.2
20260903035041 31 179 1.6 6.4 0.00 0.00 0.00 26 1010.2
20260903034542 31 179 3.2 6.4 0.00 0.00 0.00 26 1010.2
20260903034042 31 179 3.2 6.4 0.00 0.00 0.00 26 1010.2
20260903033540 31 178 1.6 6.4 0.00 0.00 0.00 25 1010.1
20260903032542 32 179 3.2 6.4 0.00 0.00 0.00 25 1010.1
20260903032041 32 178 3.2 6.4 0.00 0.00 0.00 24 1010.0
20260903031547 32 178 3.2 8.0 0.00 0.00 0.00 24 1010.0
20260903031040 32 177 4.8 8.0 0.00 0.00 0.00 23 1009.9
20260903030542 32 175 3.2 8.0 0.00 0.00 0.00 23 1009.8
20260903030041 32 175 3.2 8.0 0.00 0.00 0.00 23 1009.8
20260903025540 32 168 3.2 8.0 0.00 0.00 0.00 24 1009.7
20260903025040 32 168 3.2 6.4 0.00 0.00 0.00 24 1009.7
20260903024540 32 168 3.2 4.8 0.00 0.00 0.00 24 1009.5
20260903024040 32 168 1.6 4.8 0.00 0.00 0.00 24 1009.6
20260903023540 33 168 1.6 4.8 0.00 0.00 0.00 23 1009.4
20260903022540 33 168 1.6 6.4 0.00 0.00 0.00 22 1009.2
20260903022043 33 168 3.2 6.4 0.00 0.00 0.00 22 1009.2
20260903021541 33 168 3.2 6.4 0.00 0.00 0.00 22 1009.1
20260903021041 33 168 3.2 6.4 0.00 0.00 0.00 21 1009.1
20260903020540 33 168 3.2 6.4 0.00 0.00 0.00 21 1009.0
20260903020049 33 168 3.2 4.8 0.00 0.00 0.00 21 1009.0
20260903015540 33 168 0.0 4.8 0.00 0.00 0.00 21 1008.9
20260903015039 34 168 0.0 4.8 0.00 0.00 0.00 21 1008.8
20260903014539 34 168 1.6 4.8 0.00 0.00 0.00 21 1008.8
20260903014045 34 168 3.2 6.4 0.00 0.00 0.00 21 1008.7
20260903013543 35 168 3.2 6.4 0.00 0.00 0.00 20 1008.6
20260903012541 35 168 3.2 6.4 0.00 0.00 0.00 19 1008.6
20260903012039 35 168 1.6 8.0 0.00 0.00 0.00 19 1008.6
20260903011539 35 168 3.2 9.7 0.00 0.00 0.00 19 1008.5
20260903011038 35 168 3.2 9.7 0.00 0.00 0.00 19 1008.5
20260903010542 35 156 4.8 12.9 0.00 0.00 0.00 19 1008.4
20260903010040 36 161 6.4 12.9 0.00 0.00 0.00 18 1008.4
20260903005538 36 176 4.8 11.3 0.00 0.00 0.00 18 1008.5
20260903005037 36 182 4.8 11.3 0.00 0.00 0.00 17 1008.5
20260903004538 36 150 3.2 9.7 0.00 0.00 0.00 17 1008.4
20260903004038 36 179 4.8 12.9 0.00 0.00 0.00 16 1008.3
20260903003539 36 166 4.8 17.7 0.00 0.00 0.00 17 1008.3
20260903002537 36 158 6.4 12.9 0.00 0.00 0.00 16 1008.4
20260903002038 37 127 6.4 12.9 0.00 0.00 0.00 16 1008.4
20260903001538 37 164 4.8 16.1 0.00 0.00 0.00 15 1008.4
20260903001040 37 171 6.4 16.1 0.00 0.00 0.00 16 1008.5
20260903000536 37 165 6.4 19.3 0.00 0.00 0.00 16 1008.5
20260903000042 37 187 8.0 19.3 0.00 0.00 0.00 15 1008.6
20260902235537 37 194 8.0 16.1 0.00 0.00 0.00 15 1008.5
20260902235037 37 148 4.8 16.1 0.00 0.00 0.00 15 1008.5
20260902234537 37 170 4.8 16.1 0.00 0.00 0.00 15 1008.4
20260902234036 37 175 4.8 9.7 0.00 0.00 0.00 15 1008.5